Location: Newark
(46.9000°N, 28.3500°E)
Time: 01:15:55
(UTC+00:00)

Explorer 7 - Pass Details

Date: 25 August 2019
Orbit: 485 x 680 km, 50.3° (Epoch: 17 October)

Event Time Altitude Azimuth Distance (km) Brightness Sun altitude
Rises 06:23:32 0° 220° (SW) 3,019 10.4 30.6°
Reaches altitude 10° 06:26:01 10° 213° (SSW) 2,099 9.7 31.0°
Maximum altitude 06:30:33 40° 144° (SE) 976 9.4 31.8°
Drops below altitude 10° 06:34:57 10° 76° (ENE) 2,035 10.6 32.5°
Sets 06:37:20 0° 69° (ENE) 2,917 11.1 32.8°
